Year,Month,Day,Hour,Minute,Value (Times are PST for temperature in C)
2020,08,18,00,00,17.00
2020,08,18,00,01,17.00
2020,08,18,00,02,17.00
2020,08,18,00,03,16.90
2020,08,18,00,04,16.90
2020,08,18,00,05,16.90
2020,08,18,00,06,16.90
2020,08,18,00,07,16.90
2020,08,18,00,08,16.90
2020,08,18,00,09,16.90
2020,08,18,00,10,16.90
2020,08,18,00,11,16.90
2020,08,18,00,12,16.90
2020,08,18,00,13,16.90
2020,08,18,00,14,16.90
2020,08,18,00,15,16.80
2020,08,18,00,16,16.80
2020,08,18,00,17,16.80
2020,08,18,00,18,16.80
2020,08,18,00,19,16.80
2020,08,18,00,20,16.80
2020,08,18,00,21,16.80
2020,08,18,00,22,16.80
2020,08,18,00,23,16.80
2020,08,18,00,24,16.70
2020,08,18,00,25,16.70
2020,08,18,00,26,16.70
2020,08,18,00,27,16.70
2020,08,18,00,28,16.70
2020,08,18,00,29,16.60
2020,08,18,00,30,16.60
2020,08,18,00,31,16.60
2020,08,18,00,32,16.60
2020,08,18,00,33,16.60
2020,08,18,00,34,16.60
2020,08,18,00,35,16.60
2020,08,18,00,36,16.60
2020,08,18,00,37,16.60
2020,08,18,00,38,16.60
2020,08,18,00,39,16.60
2020,08,18,00,40,16.60
2020,08,18,00,41,16.60
2020,08,18,00,42,16.60
2020,08,18,00,43,16.50
2020,08,18,00,44,16.50
2020,08,18,00,45,16.50
2020,08,18,00,46,16.50
2020,08,18,00,47,16.50
2020,08,18,00,48,16.50
2020,08,18,00,49,16.50
2020,08,18,00,50,16.50
2020,08,18,00,51,16.50
2020,08,18,00,52,16.50
2020,08,18,00,53,16.50
2020,08,18,00,54,16.50
2020,08,18,00,55,16.50
2020,08,18,00,56,16.50
2020,08,18,00,57,16.40
2020,08,18,00,58,16.50
2020,08,18,00,59,16.40
2020,08,18,01,00,16.40
2020,08,18,01,01,16.40
2020,08,18,01,02,16.40
2020,08,18,01,03,16.40
2020,08,18,01,04,16.40
2020,08,18,01,05,16.40
2020,08,18,01,06,16.40
2020,08,18,01,07,16.40
2020,08,18,01,08,16.40
2020,08,18,01,09,16.40
2020,08,18,01,10,16.40
2020,08,18,01,11,16.40
2020,08,18,01,12,16.40
2020,08,18,01,13,16.30
2020,08,18,01,14,16.30
2020,08,18,01,15,16.30
2020,08,18,01,16,16.30
2020,08,18,01,17,16.30
2020,08,18,01,18,16.30
2020,08,18,01,19,16.30
2020,08,18,01,20,16.30
2020,08,18,01,21,16.30
2020,08,18,01,22,16.30
2020,08,18,01,23,16.30
2020,08,18,01,24,16.30
2020,08,18,01,25,16.30
2020,08,18,01,26,16.30
2020,08,18,01,27,16.20
2020,08,18,01,28,16.20
2020,08,18,01,29,16.20
2020,08,18,01,30,16.20
2020,08,18,01,31,16.20
2020,08,18,01,32,16.10
2020,08,18,01,33,16.10
2020,08,18,01,34,16.10
2020,08,18,01,35,16.10
2020,08,18,01,36,16.10
2020,08,18,01,37,16.10
2020,08,18,01,38,16.10
2020,08,18,01,39,16.10
2020,08,18,01,40,16.10
2020,08,18,01,41,16.10
2020,08,18,01,42,16.00
2020,08,18,01,43,16.00
2020,08,18,01,44,16.00
2020,08,18,01,45,16.00
2020,08,18,01,46,16.00
2020,08,18,01,47,15.90
2020,08,18,01,48,15.90
2020,08,18,01,49,15.90
2020,08,18,01,50,15.90
2020,08,18,01,51,15.90
2020,08,18,01,52,15.90
2020,08,18,01,53,15.80
2020,08,18,01,54,15.90
2020,08,18,01,55,15.80
2020,08,18,01,56,15.80
2020,08,18,01,57,15.80
2020,08,18,01,58,15.80
2020,08,18,01,59,15.80
2020,08,18,02,00,15.80
2020,08,18,02,01,15.80
2020,08,18,02,02,15.80
2020,08,18,02,03,15.80
2020,08,18,02,04,15.80
2020,08,18,02,05,15.80
2020,08,18,02,06,15.70
2020,08,18,02,07,15.70
2020,08,18,02,08,15.70
2020,08,18,02,09,15.70
2020,08,18,02,10,15.70
2020,08,18,02,11,15.70
2020,08,18,02,12,15.70
2020,08,18,02,13,15.70
2020,08,18,02,14,15.70
2020,08,18,02,15,15.70
2020,08,18,02,16,15.70
2020,08,18,02,17,15.70
2020,08,18,02,18,15.70
2020,08,18,02,19,15.70
2020,08,18,02,20,15.70
2020,08,18,02,21,15.70
2020,08,18,02,22,15.70
2020,08,18,02,23,15.70
2020,08,18,02,24,15.70
2020,08,18,02,25,15.70
2020,08,18,02,26,15.70
2020,08,18,02,27,15.70
2020,08,18,02,28,15.70
2020,08,18,02,29,15.70
2020,08,18,02,30,15.70
2020,08,18,02,31,15.70
2020,08,18,02,32,15.70
2020,08,18,02,33,15.70
2020,08,18,02,34,15.70
2020,08,18,02,35,15.70
2020,08,18,02,36,15.70
2020,08,18,02,37,15.70
2020,08,18,02,38,15.70
2020,08,18,02,39,15.70
2020,08,18,02,40,15.70
2020,08,18,02,41,15.70
2020,08,18,02,42,15.70
2020,08,18,02,43,15.80
2020,08,18,02,44,15.80
2020,08,18,02,45,15.80
2020,08,18,02,46,15.80
2020,08,18,02,47,15.80
2020,08,18,02,48,15.80
2020,08,18,02,49,15.80
2020,08,18,02,50,15.80
2020,08,18,02,51,15.80
2020,08,18,02,52,15.80
2020,08,18,02,53,15.80
2020,08,18,02,54,15.80
2020,08,18,02,55,15.80
2020,08,18,02,56,15.80
2020,08,18,02,57,15.80
2020,08,18,02,58,15.80
2020,08,18,02,59,15.80
2020,08,18,03,00,15.80
2020,08,18,03,01,15.80
2020,08,18,03,02,15.70
2020,08,18,03,03,15.70
2020,08,18,03,04,15.70
2020,08,18,03,05,15.70
2020,08,18,03,06,15.70
2020,08,18,03,07,15.70
2020,08,18,03,08,15.70
2020,08,18,03,09,15.70
2020,08,18,03,10,15.70
2020,08,18,03,11,15.60
2020,08,18,03,12,15.60
2020,08,18,03,13,15.60
2020,08,18,03,14,15.60
2020,08,18,03,15,15.60
2020,08,18,03,16,15.60
2020,08,18,03,17,15.60
2020,08,18,03,18,15.60
2020,08,18,03,19,15.60
2020,08,18,03,20,15.60
2020,08,18,03,21,15.60
2020,08,18,03,22,15.60
2020,08,18,03,23,15.60
2020,08,18,03,24,15.60
2020,08,18,03,25,15.60
2020,08,18,03,26,15.60
2020,08,18,03,27,15.50
2020,08,18,03,28,15.50
2020,08,18,03,29,15.50
2020,08,18,03,30,15.50
2020,08,18,03,31,15.50
2020,08,18,03,32,15.50
2020,08,18,03,33,15.50
2020,08,18,03,34,15.40
2020,08,18,03,35,15.40
2020,08,18,03,36,15.40
2020,08,18,03,37,15.40
2020,08,18,03,38,15.40
2020,08,18,03,39,15.40
2020,08,18,03,40,15.40
2020,08,18,03,41,15.40
2020,08,18,03,42,15.40
2020,08,18,03,43,15.40
2020,08,18,03,44,15.40
2020,08,18,03,45,15.50
2020,08,18,03,46,15.50
2020,08,18,03,47,15.50
2020,08,18,03,48,15.50
2020,08,18,03,49,15.60
2020,08,18,03,50,15.60
2020,08,18,03,51,15.60
2020,08,18,03,52,15.70
2020,08,18,03,53,15.70
2020,08,18,03,54,15.70
2020,08,18,03,55,15.70
2020,08,18,03,56,15.70
2020,08,18,03,57,15.70
2020,08,18,03,58,15.70
2020,08,18,03,59,15.70
2020,08,18,04,00,15.70
2020,08,18,04,01,15.70
2020,08,18,04,02,15.70
2020,08,18,04,03,15.70
2020,08,18,04,04,15.70
2020,08,18,04,05,15.70
2020,08,18,04,06,15.60
2020,08,18,04,07,15.60
2020,08,18,04,08,15.60
2020,08,18,04,09,15.60
2020,08,18,04,10,15.60
2020,08,18,04,11,15.60
2020,08,18,04,12,15.60
2020,08,18,04,13,15.60
2020,08,18,04,14,15.60
2020,08,18,04,15,15.60
2020,08,18,04,16,15.60
2020,08,18,04,17,15.70
2020,08,18,04,18,15.80
2020,08,18,04,19,15.80
2020,08,18,04,20,15.90
2020,08,18,04,21,15.90
2020,08,18,04,22,15.90
2020,08,18,04,23,16.00
2020,08,18,04,24,16.00
2020,08,18,04,25,16.00
2020,08,18,04,26,16.00
2020,08,18,04,27,16.00
2020,08,18,04,28,16.00
2020,08,18,04,29,16.00
2020,08,18,04,30,16.00
2020,08,18,04,31,16.00
2020,08,18,04,32,16.00
2020,08,18,04,33,16.00
2020,08,18,04,34,16.10
2020,08,18,04,35,16.10
2020,08,18,04,36,16.10
2020,08,18,04,37,16.20
2020,08,18,04,38,16.30
2020,08,18,04,39,16.40
2020,08,18,04,40,16.40
2020,08,18,04,41,16.50
2020,08,18,04,42,16.60
2020,08,18,04,43,16.60
2020,08,18,04,44,16.70
2020,08,18,04,45,16.70
2020,08,18,04,46,16.80
2020,08,18,04,47,16.80
2020,08,18,04,48,16.80
2020,08,18,04,49,16.80
2020,08,18,04,50,16.80
2020,08,18,04,51,16.90
2020,08,18,04,52,16.90
2020,08,18,04,53,17.00
2020,08,18,04,54,17.10
2020,08,18,04,55,17.10
2020,08,18,04,56,17.20
2020,08,18,04,57,17.20
2020,08,18,04,58,17.20
2020,08,18,04,59,17.20
2020,08,18,05,00,17.20
2020,08,18,05,01,17.20
2020,08,18,05,02,17.20
2020,08,18,05,03,17.20
2020,08,18,05,04,17.20
2020,08,18,05,05,17.20
2020,08,18,05,06,17.20
2020,08,18,05,07,17.20
2020,08,18,05,08,17.20
2020,08,18,05,09,17.20
2020,08,18,05,10,17.20
2020,08,18,05,11,17.20
2020,08,18,05,12,17.20
2020,08,18,05,13,17.10
2020,08,18,05,14,17.10
2020,08,18,05,15,17.10
2020,08,18,05,16,17.10
2020,08,18,05,17,17.10
2020,08,18,05,18,17.10
2020,08,18,05,19,17.10
2020,08,18,05,20,17.10
2020,08,18,05,21,17.10
2020,08,18,05,22,17.10
2020,08,18,05,23,17.20
2020,08,18,05,24,17.20
2020,08,18,05,25,17.30
2020,08,18,05,26,17.30
2020,08,18,05,27,17.30
2020,08,18,05,28,17.30
2020,08,18,05,29,17.30
2020,08,18,05,30,17.40
2020,08,18,05,31,17.40
2020,08,18,05,32,17.40
2020,08,18,05,33,17.40
2020,08,18,05,34,17.50
2020,08,18,05,35,17.50
2020,08,18,05,36,17.50
2020,08,18,05,37,17.50
2020,08,18,05,38,17.50
2020,08,18,05,39,17.60
2020,08,18,05,40,17.60
2020,08,18,05,41,17.60
2020,08,18,05,42,17.60
2020,08,18,05,43,17.60
2020,08,18,05,44,17.50
2020,08,18,05,45,17.50
2020,08,18,05,46,17.50
2020,08,18,05,47,17.50
2020,08,18,05,48,17.60
2020,08,18,05,49,17.60
2020,08,18,05,50,17.60
2020,08,18,05,51,17.60
2020,08,18,05,52,17.60
2020,08,18,05,53,17.60
2020,08,18,05,54,17.70
2020,08,18,05,55,17.70
2020,08,18,05,56,17.70
2020,08,18,05,57,17.70
2020,08,18,05,58,17.70
2020,08,18,05,59,17.70
2020,08,18,06,00,17.70
2020,08,18,06,01,17.70
2020,08,18,06,02,17.70
2020,08,18,06,03,17.70
2020,08,18,06,04,17.70
2020,08,18,06,05,17.70
2020,08,18,06,06,17.70
2020,08,18,06,07,17.70
2020,08,18,06,08,17.80
2020,08,18,06,09,17.80
2020,08,18,06,10,17.80
2020,08,18,06,11,17.80
2020,08,18,06,12,17.80
2020,08,18,06,13,17.80
2020,08,18,06,14,17.80
2020,08,18,06,15,17.80
2020,08,18,06,16,17.90
2020,08,18,06,17,17.90
2020,08,18,06,18,17.90
2020,08,18,06,19,17.90
2020,08,18,06,20,17.90
2020,08,18,06,21,17.90
2020,08,18,06,22,17.90
2020,08,18,06,23,17.90
2020,08,18,06,24,17.90
2020,08,18,06,25,17.90
2020,08,18,06,26,17.90
2020,08,18,06,27,17.90
2020,08,18,06,28,17.90
2020,08,18,06,29,17.80
2020,08,18,06,30,17.80
2020,08,18,06,31,17.80
2020,08,18,06,32,17.80
2020,08,18,06,33,17.80
2020,08,18,06,34,17.80
2020,08,18,06,35,17.80
2020,08,18,06,36,17.80
2020,08,18,06,37,17.80
2020,08,18,06,38,17.80
2020,08,18,06,39,17.80
2020,08,18,06,40,17.80
2020,08,18,06,41,17.80
2020,08,18,06,42,17.80
2020,08,18,06,43,17.80
2020,08,18,06,44,17.80
2020,08,18,06,45,17.80
2020,08,18,06,46,17.80
2020,08,18,06,47,17.80
2020,08,18,06,48,17.80
2020,08,18,06,49,17.80
2020,08,18,06,50,17.80
2020,08,18,06,51,17.80
2020,08,18,06,52,17.80
2020,08,18,06,53,17.80
2020,08,18,06,54,17.80
2020,08,18,06,55,17.80
2020,08,18,06,56,17.80
2020,08,18,06,57,17.80
2020,08,18,06,58,17.80
2020,08,18,06,59,17.80
2020,08,18,07,00,17.80
2020,08,18,07,01,17.80
2020,08,18,07,02,17.80
2020,08,18,07,03,17.80
2020,08,18,07,04,17.80
2020,08,18,07,05,17.80
2020,08,18,07,06,17.80
2020,08,18,07,07,17.80
2020,08,18,07,08,17.80
2020,08,18,07,09,17.90
2020,08,18,07,10,17.90
2020,08,18,07,11,17.90
2020,08,18,07,12,17.90
2020,08,18,07,13,17.90
2020,08,18,07,14,17.90
2020,08,18,07,15,17.90
2020,08,18,07,16,17.90
2020,08,18,07,17,17.90
2020,08,18,07,18,17.90
2020,08,18,07,19,17.90
2020,08,18,07,20,17.90
2020,08,18,07,21,17.90
2020,08,18,07,22,17.90
2020,08,18,07,23,17.90
2020,08,18,07,24,17.90
2020,08,18,07,25,17.90
2020,08,18,07,26,18.00
2020,08,18,07,27,18.00
2020,08,18,07,28,18.00
2020,08,18,07,29,18.00
2020,08,18,07,30,18.00
2020,08,18,07,31,18.00
2020,08,18,07,32,18.00
2020,08,18,07,33,18.10
2020,08,18,07,34,18.10
2020,08,18,07,35,18.10
2020,08,18,07,36,18.10
2020,08,18,07,37,18.10
2020,08,18,07,38,18.10
2020,08,18,07,39,18.10
2020,08,18,07,40,18.10
2020,08,18,07,41,18.10
2020,08,18,07,42,18.10
2020,08,18,07,43,18.10
2020,08,18,07,44,18.10
2020,08,18,07,45,18.10
2020,08,18,07,46,18.10
2020,08,18,07,47,18.10
2020,08,18,07,48,18.10
2020,08,18,07,49,18.20
2020,08,18,07,50,18.20
2020,08,18,07,51,18.20
2020,08,18,07,52,18.20
2020,08,18,07,53,18.20
2020,08,18,07,54,18.20
2020,08,18,07,55,18.20
2020,08,18,07,56,18.20
2020,08,18,07,57,18.20
2020,08,18,07,58,18.20
2020,08,18,07,59,18.20
2020,08,18,08,00,18.20
2020,08,18,08,01,18.20
2020,08,18,08,02,18.20
2020,08,18,08,03,18.20
2020,08,18,08,04,18.20
2020,08,18,08,05,18.30
2020,08,18,08,06,18.30
2020,08,18,08,07,18.30
2020,08,18,08,08,18.30
2020,08,18,08,09,18.30
2020,08,18,08,10,18.30
2020,08,18,08,11,18.30
2020,08,18,08,12,18.30
2020,08,18,08,13,18.30
2020,08,18,08,14,18.30
2020,08,18,08,15,18.30
2020,08,18,08,16,18.30
2020,08,18,08,17,18.40
2020,08,18,08,18,18.40
2020,08,18,08,19,18.40
2020,08,18,08,20,18.40
2020,08,18,08,21,18.40
2020,08,18,08,22,18.40
2020,08,18,08,23,18.40
2020,08,18,08,24,18.50
2020,08,18,08,25,18.50
2020,08,18,08,26,18.50
2020,08,18,08,27,18.50
2020,08,18,08,28,18.50
2020,08,18,08,29,18.50
2020,08,18,08,30,18.50
2020,08,18,08,31,18.50
2020,08,18,08,32,18.50
2020,08,18,08,33,18.50
2020,08,18,08,34,18.50
2020,08,18,08,35,18.50
2020,08,18,08,36,18.60
2020,08,18,08,37,18.60
2020,08,18,08,38,18.60
2020,08,18,08,39,18.60
2020,08,18,08,40,18.70
2020,08,18,08,41,18.70
2020,08,18,08,42,18.70
2020,08,18,08,43,18.70
2020,08,18,08,44,18.70
2020,08,18,08,45,18.80
2020,08,18,08,46,18.80
2020,08,18,08,47,18.80
2020,08,18,08,48,18.80
2020,08,18,08,49,18.80
2020,08,18,08,50,18.80
2020,08,18,08,51,18.80
2020,08,18,08,52,18.90
2020,08,18,08,53,18.90
2020,08,18,08,54,18.90
2020,08,18,08,55,18.90
2020,08,18,08,56,18.90
2020,08,18,08,57,19.00
2020,08,18,08,58,19.00
2020,08,18,08,59,19.10
2020,08,18,09,00,19.10
2020,08,18,09,01,19.10
2020,08,18,09,02,19.20
2020,08,18,09,03,19.20
2020,08,18,09,04,19.20
2020,08,18,09,05,19.20
2020,08,18,09,06,19.10
2020,08,18,09,07,19.10
2020,08,18,09,08,19.10
2020,08,18,09,09,19.10
2020,08,18,09,10,19.10
2020,08,18,09,11,19.10
2020,08,18,09,12,19.20
2020,08,18,09,13,19.20
2020,08,18,09,14,19.20
2020,08,18,09,15,19.20
2020,08,18,09,16,19.30
2020,08,18,09,17,19.30
2020,08,18,09,18,19.30
2020,08,18,09,19,19.30
2020,08,18,09,20,19.30
2020,08,18,09,21,19.40
2020,08,18,09,22,19.40
2020,08,18,09,23,19.40
2020,08,18,09,24,19.40
2020,08,18,09,25,19.50
2020,08,18,09,26,19.50
2020,08,18,09,27,19.60
2020,08,18,09,28,19.60
2020,08,18,09,29,19.60
2020,08,18,09,30,19.70
2020,08,18,09,31,19.70
2020,08,18,09,32,19.70
2020,08,18,09,33,19.70
2020,08,18,09,34,19.80
2020,08,18,09,35,19.80
2020,08,18,09,36,19.80
2020,08,18,09,37,19.80
2020,08,18,09,38,19.90
2020,08,18,09,39,19.90
2020,08,18,09,40,19.90
2020,08,18,09,41,19.90
2020,08,18,09,42,19.90
2020,08,18,09,43,19.90
2020,08,18,09,44,20.00
2020,08,18,09,45,20.00
2020,08,18,09,46,20.10
2020,08,18,09,47,20.10
2020,08,18,09,48,20.10
2020,08,18,09,49,20.10
2020,08,18,09,50,20.20
2020,08,18,09,51,20.20
2020,08,18,09,52,20.20
2020,08,18,09,53,20.20
2020,08,18,09,54,20.20
2020,08,18,09,55,20.30
2020,08,18,09,56,20.30
2020,08,18,09,57,20.30
2020,08,18,09,58,20.30
2020,08,18,09,59,20.30
2020,08,18,10,00,20.30
2020,08,18,10,01,20.30
2020,08,18,10,02,20.30
2020,08,18,10,03,20.30
2020,08,18,10,04,20.30
2020,08,18,10,05,20.40
2020,08,18,10,06,20.40
2020,08,18,10,07,20.40
2020,08,18,10,08,20.40
2020,08,18,10,09,20.40
2020,08,18,10,10,20.40
2020,08,18,10,11,20.40
2020,08,18,10,12,20.50
2020,08,18,10,13,20.60
2020,08,18,10,14,20.70
2020,08,18,10,15,20.70
2020,08,18,10,16,20.60
2020,08,18,10,17,20.60
2020,08,18,10,18,20.60
2020,08,18,10,19,20.60
2020,08,18,10,20,20.60
2020,08,18,10,21,20.60
2020,08,18,10,22,20.70
2020,08,18,10,23,20.70
2020,08,18,10,24,20.70
2020,08,18,10,25,20.70
2020,08,18,10,26,20.60
2020,08,18,10,27,20.60
2020,08,18,10,28,20.50
2020,08,18,10,29,20.50
2020,08,18,10,30,20.50
2020,08,18,10,31,20.50
2020,08,18,10,32,20.50
2020,08,18,10,33,20.50
2020,08,18,10,34,20.60
2020,08,18,10,35,20.60
2020,08,18,10,36,20.60
2020,08,18,10,37,20.60
2020,08,18,10,38,20.60
2020,08,18,10,39,20.60
2020,08,18,10,40,20.70
2020,08,18,10,41,20.70
2020,08,18,10,42,20.70
2020,08,18,10,43,20.70
2020,08,18,10,44,20.70
2020,08,18,10,45,20.70
2020,08,18,10,46,20.70
2020,08,18,10,47,20.70
2020,08,18,10,48,20.80
2020,08,18,10,49,20.80
2020,08,18,10,50,20.90
2020,08,18,10,51,20.90
2020,08,18,10,52,21.00
2020,08,18,10,53,21.00
2020,08,18,10,54,21.00
2020,08,18,10,55,21.00
2020,08,18,10,56,21.00
2020,08,18,10,57,20.90
2020,08,18,10,58,20.90
2020,08,18,10,59,20.90
2020,08,18,11,00,20.90
2020,08,18,11,01,20.90
2020,08,18,11,02,21.00
2020,08,18,11,03,21.00
2020,08,18,11,04,21.10
2020,08,18,11,05,21.10
2020,08,18,11,06,21.10
2020,08,18,11,07,21.10
2020,08,18,11,08,21.10
2020,08,18,11,09,21.10
2020,08,18,11,10,21.10
2020,08,18,11,11,21.10
2020,08,18,11,12,21.00
2020,08,18,11,13,21.00
2020,08,18,11,14,21.00
2020,08,18,11,15,20.90
2020,08,18,11,16,20.90
2020,08,18,11,17,20.90
2020,08,18,11,18,20.80
2020,08,18,11,19,20.90
2020,08,18,11,20,20.90
2020,08,18,11,21,21.00
2020,08,18,11,22,21.00
2020,08,18,11,23,21.00
2020,08,18,11,24,21.10
2020,08,18,11,25,21.10
2020,08,18,11,26,21.10
2020,08,18,11,27,21.10
2020,08,18,11,28,21.20
2020,08,18,11,29,21.20
2020,08,18,11,30,21.20
2020,08,18,11,31,21.20
2020,08,18,11,32,21.20
2020,08,18,11,33,21.20
2020,08,18,11,34,21.30
2020,08,18,11,35,21.30
2020,08,18,11,36,21.30
2020,08,18,11,37,21.20
2020,08,18,11,38,21.20
2020,08,18,11,39,21.20
2020,08,18,11,40,21.20
2020,08,18,11,41,21.20
2020,08,18,11,42,21.20
2020,08,18,11,43,21.20
2020,08,18,11,44,21.20
2020,08,18,11,45,21.20
2020,08,18,11,46,21.20
2020,08,18,11,47,21.20
2020,08,18,11,48,21.20
2020,08,18,11,49,21.20
2020,08,18,11,50,21.20
2020,08,18,11,51,21.20
2020,08,18,11,52,21.10
2020,08,18,11,53,21.10
2020,08,18,11,54,21.10
2020,08,18,11,55,21.00
2020,08,18,11,56,20.90
2020,08,18,11,57,20.90
2020,08,18,11,58,20.90
2020,08,18,11,59,21.00
2020,08,18,12,00,21.00
2020,08,18,12,01,21.00
2020,08,18,12,02,21.10
2020,08,18,12,03,21.10
2020,08,18,12,04,21.10
2020,08,18,12,05,21.10
2020,08,18,12,06,21.10
2020,08,18,12,07,21.10
2020,08,18,12,08,21.10
2020,08,18,12,09,21.20
2020,08,18,12,10,21.20
2020,08,18,12,11,21.10
2020,08,18,12,12,21.10
2020,08,18,12,13,21.10
2020,08,18,12,14,21.10
2020,08,18,12,15,21.10
2020,08,18,12,16,21.10
2020,08,18,12,17,21.00
2020,08,18,12,18,21.00
2020,08,18,12,19,21.10
2020,08,18,12,20,21.10
2020,08,18,12,21,21.10
2020,08,18,12,22,21.10
2020,08,18,12,23,21.10
2020,08,18,12,24,21.20
2020,08,18,12,25,21.20
2020,08,18,12,26,21.20
2020,08,18,12,27,21.20
2020,08,18,12,28,21.30
2020,08,18,12,29,21.30
2020,08,18,12,30,21.30
2020,08,18,12,31,21.30
2020,08,18,12,32,21.40
2020,08,18,12,33,21.40
2020,08,18,12,34,21.50
2020,08,18,12,35,21.50
2020,08,18,12,36,21.50
2020,08,18,12,37,21.50
2020,08,18,12,38,21.50
2020,08,18,12,39,21.50
2020,08,18,12,40,21.40
2020,08,18,12,41,21.40
2020,08,18,12,42,21.40
2020,08,18,12,43,21.40
2020,08,18,12,44,21.50
2020,08,18,12,45,21.50
2020,08,18,12,46,21.50
2020,08,18,12,47,21.50
2020,08,18,12,48,21.50
2020,08,18,12,49,21.50
2020,08,18,12,50,21.50
2020,08,18,12,51,21.50
2020,08,18,12,52,21.50
2020,08,18,12,53,21.50
2020,08,18,12,54,21.60
2020,08,18,12,55,21.60
2020,08,18,12,56,21.60
2020,08,18,12,57,21.60
2020,08,18,12,58,21.60
2020,08,18,12,59,21.60
2020,08,18,13,00,21.60
2020,08,18,13,01,21.60
2020,08,18,13,02,21.70
2020,08,18,13,03,21.70
2020,08,18,13,04,21.70
2020,08,18,13,05,21.70
2020,08,18,13,06,21.70
2020,08,18,13,07,21.80
2020,08,18,13,08,21.80
2020,08,18,13,09,21.80
2020,08,18,13,10,21.70
2020,08,18,13,11,21.70
2020,08,18,13,12,21.70
2020,08,18,13,13,21.80
2020,08,18,13,14,21.80
2020,08,18,13,15,21.80
2020,08,18,13,16,21.80
2020,08,18,13,17,21.80
2020,08,18,13,18,21.80
2020,08,18,13,19,21.80
2020,08,18,13,20,21.80
2020,08,18,13,21,21.90
2020,08,18,13,22,22.00
2020,08,18,13,23,22.00
2020,08,18,13,24,22.10
2020,08,18,13,25,22.10
2020,08,18,13,26,22.10
2020,08,18,13,27,22.10
2020,08,18,13,28,22.10
2020,08,18,13,29,22.10
2020,08,18,13,30,22.10
2020,08,18,13,31,22.10
2020,08,18,13,32,22.20
2020,08,18,13,33,22.20
2020,08,18,13,34,22.20
2020,08,18,13,35,22.30
2020,08,18,13,36,22.40
2020,08,18,13,37,22.40
2020,08,18,13,38,22.60
2020,08,18,13,39,22.70
2020,08,18,13,40,22.70
2020,08,18,13,41,22.70
2020,08,18,13,42,22.60
2020,08,18,13,43,22.60
2020,08,18,13,44,22.60
2020,08,18,13,45,22.60
2020,08,18,13,46,22.60
2020,08,18,13,47,22.50
2020,08,18,13,48,22.50
2020,08,18,13,49,22.40
2020,08,18,13,50,22.40
2020,08,18,13,51,22.40
2020,08,18,13,52,22.40
2020,08,18,13,53,22.30
2020,08,18,13,54,22.30
2020,08,18,13,55,22.30
2020,08,18,13,56,22.40
2020,08,18,13,57,22.40
2020,08,18,13,58,22.40
2020,08,18,13,59,22.40
2020,08,18,14,00,22.40
2020,08,18,14,01,22.30
2020,08,18,14,02,22.30
2020,08,18,14,03,22.30
2020,08,18,14,04,22.20
2020,08,18,14,05,22.20
2020,08,18,14,06,22.20
2020,08,18,14,07,22.20
2020,08,18,14,08,22.10
2020,08,18,14,09,22.10
2020,08,18,14,10,22.10
2020,08,18,14,11,22.10
2020,08,18,14,12,22.10
2020,08,18,14,13,22.20
2020,08,18,14,14,22.20
2020,08,18,14,15,22.20
2020,08,18,14,16,22.20
2020,08,18,14,17,22.20
2020,08,18,14,18,22.10
2020,08,18,14,19,22.10
2020,08,18,14,20,22.10
2020,08,18,14,21,22.10
2020,08,18,14,22,22.10
2020,08,18,14,23,22.20
2020,08,18,14,24,22.20
2020,08,18,14,25,22.20
2020,08,18,14,26,22.20
2020,08,18,14,27,22.30
2020,08,18,14,28,22.30
2020,08,18,14,29,22.30
2020,08,18,14,30,22.40
2020,08,18,14,31,22.40
2020,08,18,14,32,22.30
2020,08,18,14,33,22.30
2020,08,18,14,34,22.30
2020,08,18,14,35,22.20
2020,08,18,14,36,22.20
2020,08,18,14,37,22.20
2020,08,18,14,38,22.20
2020,08,18,14,39,22.20
2020,08,18,14,40,22.20
2020,08,18,14,41,22.20
2020,08,18,14,42,22.20
2020,08,18,14,43,22.20
2020,08,18,14,44,22.20
2020,08,18,14,45,22.10
2020,08,18,14,46,22.10
2020,08,18,14,47,22.00
2020,08,18,14,48,22.00
2020,08,18,14,49,21.90
2020,08,18,14,50,21.90
2020,08,18,14,51,21.90
2020,08,18,14,52,22.00
2020,08,18,14,53,22.00
2020,08,18,14,54,22.10
2020,08,18,14,55,22.10
2020,08,18,14,56,22.10
2020,08,18,14,57,22.10
2020,08,18,14,58,22.20
2020,08,18,14,59,22.20
2020,08,18,15,00,22.20
2020,08,18,15,01,22.20
2020,08,18,15,02,22.20
2020,08,18,15,03,22.20
2020,08,18,15,04,22.30
2020,08,18,15,05,22.30
2020,08,18,15,06,22.40
2020,08,18,15,07,22.50
2020,08,18,15,08,22.60
2020,08,18,15,09,22.60
2020,08,18,15,10,22.60
2020,08,18,15,11,22.60
2020,08,18,15,12,22.60
2020,08,18,15,13,22.60
2020,08,18,15,14,22.50
2020,08,18,15,15,22.50
2020,08,18,15,16,22.50
2020,08,18,15,17,22.50
2020,08,18,15,18,22.50
2020,08,18,15,19,22.40
2020,08,18,15,20,22.30
2020,08,18,15,21,22.30
2020,08,18,15,22,22.30
2020,08,18,15,23,22.30
2020,08,18,15,24,22.30
2020,08,18,15,25,22.30
2020,08,18,15,26,22.30
2020,08,18,15,27,22.30
2020,08,18,15,28,22.30
2020,08,18,15,29,22.30
2020,08,18,15,30,22.30
2020,08,18,15,31,22.30
2020,08,18,15,32,22.30
2020,08,18,15,33,22.20
2020,08,18,15,34,22.20
2020,08,18,15,35,22.30
2020,08,18,15,36,22.30
2020,08,18,15,37,22.30
2020,08,18,15,38,22.30
2020,08,18,15,39,22.30
2020,08,18,15,40,22.40
2020,08,18,15,41,22.40
2020,08,18,15,42,22.40
2020,08,18,15,43,22.50
2020,08,18,15,44,22.60
2020,08,18,15,45,22.70
2020,08,18,15,46,22.70
2020,08,18,15,47,22.70
2020,08,18,15,48,22.80
2020,08,18,15,49,22.80
2020,08,18,15,50,22.80
2020,08,18,15,51,22.80
2020,08,18,15,52,22.80
2020,08,18,15,53,22.80
2020,08,18,15,54,22.80
2020,08,18,15,55,22.80
2020,08,18,15,56,22.80
2020,08,18,15,57,22.80
2020,08,18,15,58,22.90
2020,08,18,15,59,22.90
2020,08,18,16,00,22.90
2020,08,18,16,01,22.90
2020,08,18,16,02,23.00
2020,08,18,16,03,23.10
2020,08,18,16,04,23.10
2020,08,18,16,05,23.10
2020,08,18,16,06,23.10
2020,08,18,16,07,23.00
2020,08,18,16,08,23.00
2020,08,18,16,09,23.00
2020,08,18,16,10,23.10
2020,08,18,16,11,23.20
2020,08,18,16,12,23.20
2020,08,18,16,13,23.20
2020,08,18,16,14,23.20
2020,08,18,16,15,23.20
2020,08,18,16,16,23.20
2020,08,18,16,17,23.20
2020,08,18,16,18,23.20
2020,08,18,16,19,23.20
2020,08,18,16,20,23.20
2020,08,18,16,21,23.20
2020,08,18,16,22,23.30
2020,08,18,16,23,23.40
2020,08,18,16,24,23.40
2020,08,18,16,25,23.40
2020,08,18,16,26,23.50
2020,08,18,16,27,23.50
2020,08,18,16,28,23.60
2020,08,18,16,29,23.60
2020,08,18,16,30,23.60
2020,08,18,16,31,23.60
2020,08,18,16,32,23.60
2020,08,18,16,33,23.60
2020,08,18,16,34,23.70
2020,08,18,16,35,23.60
2020,08,18,16,36,23.60
2020,08,18,16,37,23.50
2020,08,18,16,38,23.40
2020,08,18,16,39,23.40
2020,08,18,16,40,23.30
2020,08,18,16,41,23.30
2020,08,18,16,42,23.30
2020,08,18,16,43,23.40
2020,08,18,16,44,23.50
2020,08,18,16,45,23.50
2020,08,18,16,46,23.60
2020,08,18,16,47,23.60
2020,08,18,16,48,23.70
2020,08,18,16,49,23.70
2020,08,18,16,50,23.80
2020,08,18,16,51,23.80
2020,08,18,16,52,23.80
2020,08,18,16,53,23.60
2020,08,18,16,54,23.50
2020,08,18,16,55,23.40
2020,08,18,16,56,23.40
2020,08,18,16,57,23.50
2020,08,18,16,58,23.50
2020,08,18,16,59,23.50
2020,08,18,17,00,23.50
2020,08,18,17,01,23.50
2020,08,18,17,02,23.50
2020,08,18,17,03,23.50
2020,08,18,17,04,23.50
2020,08,18,17,05,23.40
2020,08,18,17,06,23.40
2020,08,18,17,07,23.30
2020,08,18,17,08,23.20
2020,08,18,17,09,23.10
2020,08,18,17,10,23.00
2020,08,18,17,11,22.90
2020,08,18,17,12,22.90
2020,08,18,17,13,22.90
2020,08,18,17,14,22.90
2020,08,18,17,15,22.80
2020,08,18,17,16,22.80
2020,08,18,17,17,22.80
2020,08,18,17,18,22.80
2020,08,18,17,19,22.80